Location: *
(50.3194°N, 7.1067°E)
Time: 04:36:37
(UTC+00:00)

Cosmos 2219 - Pass Details

Date: 22 September 2019
Orbit: 834 x 859 km, 71.1° (Epoch: 19 October)

Event Time Altitude Azimuth Distance (km) Brightness Sun altitude
Rises 18:08:03 0° 187° (S) 3,421 6.3 -6.8°
Reaches altitude 10° 18:10:35 10° 181° (S) 2,490 5.6 -7.2°
Maximum altitude 18:16:01 46° 110° (ESE) 1,137 3.5 -8.0°
Drops below altitude 10° 18:21:28 10° 38° (NE) 2,501 5.4 -8.9°
Sets 18:24:01 0° 33° (NNE) 3,439 6.2 -9.3°
